Weather History for Burley, ID

Change the Weather History Date:

Tuesday, May 12, 2009

  Actual Average Record
Temperature  
Mean Temperature 48 °F 53 °F  
Max Temperature 58 °F 66 °F 91 °F (2001)
Min Temperature 37 °F 40 °F 28 °F (1962)
Degree Days  
Heating Degree Days 17 12  
Month to date heating degree days 183 163  
Since 1 July heating degree days 6290 6551  
Cooling Degree Days 0 0  
Month to date cooling degree days 0 0  
Year to date cooling degree days 0 0  
Moisture  
Dew Point 28 °F    
Average Humidity 50    
Maximum Humidity 76    
Minimum Humidity 24    
Precipitation  
Precipitation 0.00 in 0.05 in 0.46 in (1958)
Month to date precipitation 1.04 0.58  
Year to date precipitation 4.22 4.38  
Sea Level Pressure  
Sea Level Pressure 29.80 in    
Wind  
Wind Speed 16 mph (West)    
Max Wind Speed 29 mph    
Max Gust Speed 44 mph    
Visibility 10 miles    
Events      
T = Trace of Precipitation, MM = Missing Value Source: NWS Daily Summary

Daily Weather History Graph

Daily Weather History Graph

Search for Another Location

Airport:

Trip Planner

Search our weather history database for the weather conditions in past years. The results will help you decide how hot, cold, wet, or windy it might be!

Date:

Astronomy

May. 12, 2009 Rise Set
Actual Time 6:15 AM MDT 8:47 PM MDT
Civil Twilight 5:43 AM MDT 9:19 PM MDT
Nautical Twilight 5:04 AM MDT 9:59 PM MDT
Astronomical Twilight 4:19 AM MDT 10:44 PM MDT
Moon No Moon Rise 8:28 AM MDT (5/12)
Length of Visible Light 15h 35m
Length of Day
14h 31m
Waning Gibbous, 88% of the Moon is Illuminated
May 12
Waning Gibbous
May 17
Last Quarter
May 24
New
May 30
First Quarter
Jun 7
Full

Hourly Weather History & Observations

Time (MDT) Temp. Windchill Dew Point Humidity Pressure Visibility Wind Dir Wind Speed Gust Speed Precip Events Conditions
12:53 AM 44.1 °F 41.5 °F 37.0 °F 76% 29.72 in 10.0 mi SW 4.6 mph - N/A   Clear
1:53 AM 46.0 °F 43.9 °F 37.0 °F 71% 29.70 in 10.0 mi SW 4.6 mph - N/A   Clear
3:53 AM 42.1 °F 39.2 °F 36.0 °F 79% 29.70 in 10.0 mi SSW 4.6 mph - N/A   Clear
4:53 AM 42.1 °F 37.1 °F 35.1 °F 76% 29.70 in 10.0 mi SW 8.1 mph - N/A   Clear
6:53 AM 48.0 °F - 35.1 °F 61% 29.71 in 10.0 mi West 12.7 mph - N/A   Partly Cloudy
7:53 AM 50.0 °F - 35.1 °F 57% 29.73 in 10.0 mi WSW 16.1 mph - N/A   Mostly Cloudy
8:53 AM 53.1 °F - 33.1 °F 47% 29.74 in 10.0 mi West 15.0 mph 26.5 mph N/A   Partly Cloudy
9:53 AM 53.1 °F - 34.0 °F 48% 29.77 in 10.0 mi West 16.1 mph 28.8 mph N/A   Clear
10:53 AM 55.9 °F - 30.9 °F 39% 29.78 in 10.0 mi West 24.2 mph 33.4 mph N/A   Clear
11:53 AM 55.9 °F - 30.0 °F 37% 29.80 in 10.0 mi WNW 20.7 mph 32.2 mph N/A   Clear
12:53 PM 55.9 °F - 28.9 °F 36% 29.81 in 10.0 mi West 19.6 mph 32.2 mph N/A   Unknown
1:53 PM 55.9 °F - 28.0 °F 34% 29.79 in 10.0 mi WNW 27.6 mph 39.1 mph N/A   Clear
2:53 PM 57.0 °F - 21.9 °F 26% 29.80 in 10.0 mi WNW 19.6 mph 38.0 mph N/A   Clear
3:53 PM 57.0 °F - 21.0 °F 25% 29.80 in 10.0 mi West 24.2 mph 35.7 mph N/A   Clear
4:53 PM 57.0 °F - 21.0 °F 25% 29.79 in 10.0 mi WNW 21.9 mph 34.5 mph N/A   Clear
5:53 PM 55.9 °F - 19.9 °F 25% 29.81 in 10.0 mi West 20.7 mph 35.7 mph N/A   Clear
6:53 PM 54.0 °F - 19.9 °F 26% 29.81 in 10.0 mi WNW 20.7 mph 31.1 mph N/A   Clear
7:53 PM 50.0 °F - 17.1 °F 27% 29.84 in 10.0 mi WNW 19.6 mph 33.4 mph N/A   Clear
8:53 PM 46.9 °F - 19.9 °F 34% 29.87 in 10.0 mi West 15.0 mph 25.3 mph N/A   Clear
9:53 PM 44.1 °F 37.4 °F 21.9 °F 42% 29.94 in 10.0 mi West 13.8 mph 20.7 mph N/A   Clear
10:53 PM 41.0 °F 33.9 °F 23.0 °F 49% 29.98 in 10.0 mi SW 12.7 mph - N/A   Clear
11:53 PM 39.0 °F 31.0 °F 21.9 °F 50% 30.02 in 10.0 mi WSW 13.8 mph - N/A   Clear